Waarnemingen

Advertentie
Mijn weer
Istres, Frankrijk (7647): temperatuur & dauwpunt: 20.04.2018 11:00:00 - 26.04.2018 11:00:00 (CEST)Istres, Frankrijk (7647): temperatuur 5cm: 20.04.2018 11:00:00 - 26.04.2018 11:00:00 (CEST)Istres, Frankrijk (7647): windsnelheid & windstoten: 20.04.2018 11:00:00 - 26.04.2018 11:00:00 (CEST)Istres, Frankrijk (7647): windrichting: 20.04.2018 11:00:00 - 26.04.2018 11:00:00 (CEST)Istres, Frankrijk (7647): luchtdruk: 20.04.2018 11:00:00 - 26.04.2018 11:00:00 (CEST)Istres, Frankrijk (7647): zicht: 20.04.2018 11:00:00 - 26.04.2018 11:00:00 (CEST)Istres, Frankrijk (7647): neerslag: 20.04.2018 11:00:00 - 26.04.2018 11:00:00 (CEST)
Datum & Tijd tt [°C] td [°C] tt 5cm [°C] ff [km/u] ff [kn] fx [km/u] fx [kn] dd ppp [hPa] vv [km] rr [mm]
26.04.2018 11:00:00 19,6 8,6 - 46 25 61 33 NW 1015,7 15 -
26.04.2018 10:00:00 18,6 9,1 20,8 40 22 64 35 NW 1015,8 17 0,0
26.04.2018 09:00:00 17,6 10,0 18,3 42 23 58 31 NW 1015,7 16 0,0
26.04.2018 08:00:00 16,5 10,3 15,6 35 19 55 30 NW 1015,8 17 0,0
26.04.2018 07:00:00 16,1 10,0 15,2 35 19 52 28 NNW 1015,5 21 0,0
26.04.2018 06:00:00 16,6 10,0 15,6 35 19 51 28 NW 1015,8 52 0,0
26.04.2018 05:00:00 16,9 10,3 16,0 34 18 48 26 NW 1016,0 24 0,0
26.04.2018 04:00:00 17,2 11,7 15,3 29 15 44 24 NW 1015,6 46 0,0
26.04.2018 03:00:00 16,3 13,2 14,9 25 13 35 19 WNW 1016,0 41 0,0
26.04.2018 02:00:00 15,9 14,3 14,7 14 8 24 13 W 1016,2 39 0,0
26.04.2018 01:00:00 16,4 13,3 15,0 9 5 18 10 W 1016,2 55 0,0
26.04.2018 00:00:00 17,2 15,0 16,1 14 7 25 13 W 1016,1 47 0,0
25.04.2018 23:00:00 18,3 15,5 17,5 22 12 30 16 W 1016,0 45 0,0
25.04.2018 22:00:00 19,5 16,3 18,6 14 8 32 17 W 1015,8 38 0,0
25.04.2018 21:00:00 20,3 17,1 19,5 21 12 29 15 WZW 1015,1 32 0,0
25.04.2018 20:00:00 22,1 18,1 21,8 13 7 25 13 Z 1014,5 34 0,0
25.04.2018 19:00:00 23,6 16,6 24,9 18 10 30 16 ZW 1014,6 29 0,0
25.04.2018 18:00:00 24,0 15,0 27,1 23 12 31 17 ZW 1015,0 14 0,0
25.04.2018 17:00:00 23,9 19,0 28,7 23 13 37 20 ZW 1015,1 19 0,0
25.04.2018 16:00:00 25,2 18,6 30,1 24 13 38 20 ZW 1015,4 17 0,0
25.04.2018 15:00:00 25,5 15,8 31,4 6 4 18 10 W 1016,1 15 0,0
25.04.2018 14:00:00 23,5 16,8 29,9 10 5 18 10 W 1016,7 14 0,0
25.04.2018 13:00:00 21,6 18,0 29,2 6 3 15 8 NNW 1017,8 7 0,0
25.04.2018 12:00:00 20,1 18,0 23,6 5 3 13 7 WNW 1018,9 8 0,0
25.04.2018 11:00:00 17,5 17,5 19,4 6 4 16 9 Z 1019,1 7 0,0
25.04.2018 10:00:00 16,3 16,3 17,8 5 3 12 7 WZW 1019,0 4,6 0,0
25.04.2018 09:00:00 15,5 15,5 14,5 5 3 10 6 WNW 1018,7 4,9 0,0
25.04.2018 08:00:00 13,6 13,6 11,5 3 2 7 4 NNO 1017,8 4,8 0,0
25.04.2018 07:00:00 12,6 12,6 11,5 2 1 13 7 ONO 1017,6 1,7 -
25.04.2018 06:00:00 14,7 14,7 10,2 9 5 13 7 OZO 1017,3 3,6 0,0
25.04.2018 05:00:00 13,5 13,5 9,9 5 3 7 4 ZO 1017,2 4,2 0,0
25.04.2018 04:00:00 13,9 13,9 9,7 4 2 6 3 ZO 1016,9 6 0,0
25.04.2018 03:00:00 13,7 13,7 10,3 3 1 5 3 ZW 1017,1 7 0,0
25.04.2018 02:00:00 14,9 14,9 11,5 2 1 7 4 OZO 1017,6 8 0,0
25.04.2018 01:00:00 16,0 15,5 13,9 5 3 13 7 O 1017,9 11 0,0
25.04.2018 00:00:00 16,9 15,4 15,7 7 4 11 6 ZO 1018,0 16 0,0
24.04.2018 23:00:00 17,3 15,6 15,6 8 4 13 7 OZO 1017,8 14 0,0
24.04.2018 22:00:00 17,4 15,9 15,8 9 5 13 7 OZO 1017,6 16 0,0
24.04.2018 21:00:00 17,8 16,3 16,5 11 6 21 12 ZZO 1017,2 17 0,0
24.04.2018 20:00:00 19,0 17,0 18,9 19 10 34 18 Z 1016,7 19 0,0
24.04.2018 19:00:00 20,2 17,0 22,4 29 15 42 23 Z 1016,5 20 0,0
24.04.2018 18:00:00 21,9 17,5 26,8 27 15 35 19 Z 1016,4 20 0,0
24.04.2018 17:00:00 23,2 16,7 29,0 26 14 33 18 Z 1016,6 28 0,0
24.04.2018 16:00:00 25,5 13,7 32,0 17 9 30 16 ZZW 1016,9 19 0,0
24.04.2018 15:00:00 26,9 8,3 32,4 16 8 38 20 NNW 1017,5 47 0,0
24.04.2018 14:00:00 26,2 11,1 31,2 16 9 29 16 NW 1017,8 52 0,0
24.04.2018 13:00:00 25,4 12,9 30,6 13 7 24 13 NNW 1018,3 20 0,0
24.04.2018 12:00:00 24,1 14,2 29,9 16 9 26 14 NW 1018,3 20 0,0
24.04.2018 11:00:00 22,1 15,0 26,7 10 5 24 13 NW 1018,4 19 0,0
24.04.2018 10:00:00 20,3 14,6 22,9 15 8 22 12 NNW 1018,1 19 0,0
24.04.2018 09:00:00 17,7 16,6 18,3 13 7 20 11 NW 1017,9 44 0,0
24.04.2018 08:00:00 15,0 15,0 12,2 13 7 18 10 NW 1017,8 19 0,0
24.04.2018 07:00:00 13,1 13,1 11,1 11 6 15 8 WNW 1017,3 19 0,0
24.04.2018 06:00:00 13,0 13,0 11,4 8 5 15 8 W 1017,3 20 0,2
24.04.2018 05:00:00 13,8 13,8 12,6 11 6 14 8 WNW 1017,3 28 0,0
24.04.2018 04:00:00 15,6 15,6 13,7 9 5 18 10 NNW 1017,7 36 0,0
24.04.2018 03:00:00 15,4 15,4 13,8 11 6 24 13 NW 1017,8 20 0,0
24.04.2018 02:00:00 16,7 16,7 15,4 5 3 13 7 WZW 1017,8 13 0,0
24.04.2018 01:00:00 17,2 17,2 16,5 8 5 13 7 WZW 1018,4 12 0,0
24.04.2018 00:00:00 17,7 17,7 16,5 5 3 13 7 Z 1018,4 12 0,0
23.04.2018 23:00:00 17,9 17,9 16,6 10 6 36 20 WZW 1018,8 12 0,0
23.04.2018 22:00:00 17,9 17,9 16,9 19 10 32 18 NNW 1018,4 7 0,2
23.04.2018 21:00:00 17,5 17,5 17,1 9 5 25 14 ZZW 1018,5 10 0,0
23.04.2018 20:00:00 18,3 17,3 17,8 7 4 12 7 N 1017,5 15 0,0
23.04.2018 19:00:00 18,5 17,0 18,9 0 0 12 7 N 1017,9 16 0,0
23.04.2018 18:00:00 18,8 16,9 20,9 10 5 23 12 Z 1018,3 13 0,0
23.04.2018 17:00:00 19,2 17,7 21,3 16 9 24 13 Z 1018,3 19 0,0
23.04.2018 16:00:00 20,6 16,2 23,7 15 8 22 12 Z 1018,5 20 0,0
23.04.2018 15:00:00 19,8 15,9 22,3 14 8 24 13 Z 1019,0 20 0,0
23.04.2018 14:00:00 19,8 14,2 22,2 19 10 29 15 Z 1019,1 20 0,0
23.04.2018 13:00:00 21,6 12,4 25,7 17 9 27 15 Z 1019,4 42 0,0
23.04.2018 12:00:00 21,6 11,3 26,3 16 9 24 13 Z 1019,5 19 0,0
23.04.2018 11:00:00 21,6 12,4 23,7 8 4 16 9 OZO 1019,5 19 0,0
23.04.2018 10:00:00 19,9 14,9 21,6 10 5 17 9 O 1019,3 19 0,0
23.04.2018 09:00:00 17,8 13,7 14,5 10 5 13 7 OZO 1019,0 20 0,0
23.04.2018 08:00:00 12,7 12,4 10,7 4 2 12 6 NO 1019,2 16 0,0
23.04.2018 07:00:00 11,0 11,0 10,1 7 4 11 6 NNO 1018,6 17 0,0
23.04.2018 06:00:00 11,2 11,2 10,6 8 4 12 7 NNO 1018,5 19 0,0
23.04.2018 05:00:00 11,6 11,6 10,8 9 5 13 7 NO 1018,4 22 0,0
23.04.2018 04:00:00 12,0 12,0 11,3 9 5 10 6 NO 1018,8 23 0,0
23.04.2018 03:00:00 12,4 12,4 11,5 8 4 9 5 ONO 1018,9 20 0,0
23.04.2018 02:00:00 14,1 14,1 12,2 6 3 12 7 ONO 1019,3 18 0,0
23.04.2018 01:00:00 14,8 14,8 11,6 7 4 9 5 O 1019,5 21 0,0
23.04.2018 00:00:00 16,0 13,8 12,0 5 3 9 5 OZO 1019,7 23 0,0
22.04.2018 23:00:00 16,2 14,0 13,0 6 4 9 5 OZO 1019,3 26 0,0
22.04.2018 22:00:00 17,5 13,4 15,2 6 4 11 6 OZO 1019,0 24 0,0
22.04.2018 21:00:00 17,8 12,7 15,9 10 5 13 7 ZO 1018,3 35 0,0
22.04.2018 20:00:00 19,3 12,6 18,7 9 5 14 7 ZO 1017,7 40 0,0
22.04.2018 19:00:00 20,4 11,6 21,2 12 7 23 13 ZZW 1017,7 35 0,0
22.04.2018 18:00:00 22,0 11,7 23,5 17 9 25 13 ZZW 1017,5 34 0,0
22.04.2018 17:00:00 22,6 11,9 25,4 18 10 28 15 ZZW 1017,5 39 0,0
22.04.2018 16:00:00 23,3 12,6 27,6 18 10 29 15 Z 1017,8 19 0,0
22.04.2018 15:00:00 23,4 12,4 27,2 16 9 27 15 ZW 1018,2 20 0,0
22.04.2018 14:00:00 23,9 11,6 30,3 16 8 27 14 Z 1018,4 19 0,0
22.04.2018 13:00:00 23,6 8,8 29,8 11 6 24 13 Z 1018,4 20 0,0
22.04.2018 12:00:00 23,8 9,4 28,8 9 5 16 9 OZO 1018,5 19 0,0
22.04.2018 11:00:00 22,4 10,5 28,8 6 4 15 8 ZZO 1018,8 19 0,0
22.04.2018 10:00:00 21,1 12,8 22,6 4 2 10 5 OZO 1018,4 20 0,0
22.04.2018 09:00:00 17,9 15,9 17,0 7 4 10 6 ONO 1018,1 12 0,0
22.04.2018 08:00:00 15,8 15,8 12,9 5 3 19 10 OZO 1018,2 6 0,0
22.04.2018 07:00:00 13,6 13,6 11,1 14 8 18 10 O 1017,7 8 0,0
22.04.2018 06:00:00 12,5 12,5 10,4 8 4 16 8 ONO 1017,8 6 0,0
22.04.2018 05:00:00 11,7 11,7 10,3 13 7 15 8 NO 1018,2 6 0,0
22.04.2018 04:00:00 12,3 12,3 9,8 4 2 6 3 N 1018,4 7 0,0
22.04.2018 03:00:00 12,9 12,9 9,4 0 0 5 3 N 1018,3 2,7 0,0
22.04.2018 02:00:00 14,1 14,1 10,2 2 1 9 5 OZO 1018,5 1,3 0,0
22.04.2018 01:00:00 14,5 14,5 11,6 4 2 9 5 ONO 1018,8 4,3 0,0
22.04.2018 00:00:00 16,0 16,0 11,6 2 1 5 3 ZO 1019,0 5 0,0
21.04.2018 23:00:00 16,8 16,8 - 3 1 - - OZO 1019,2 6 -
21.04.2018 22:00:00 - - - - - - - - - - -
21.04.2018 21:00:00 - - - - - - - - - - -
21.04.2018 20:00:00 - - - - - - - - - - -
21.04.2018 19:00:00 - - - - - - - - - - -
21.04.2018 18:00:00 - - - - - - - - - - -
21.04.2018 17:00:00 - - - - - - - - - - -
21.04.2018 16:00:00 - - - - - - - - - - -
21.04.2018 15:00:00 26,9 6,8 32,2 26 14 35 19 Z 1019,0 20 0,0
21.04.2018 14:00:00 26,5 8,9 32,2 20 11 31 17 Z 1019,3 26 0,0
21.04.2018 13:00:00 27,3 9,2 33,7 11 6 24 13 Z 1019,4 16 0,0
21.04.2018 12:00:00 25,6 13,4 29,5 3 1 13 7 NNO 1020,0 37 0,0
21.04.2018 11:00:00 23,3 13,5 26,4 8 5 17 9 N 1020,2 20 0,0
21.04.2018 10:00:00 21,0 13,2 22,5 12 6 17 9 NNO 1020,1 39 0,0
21.04.2018 09:00:00 17,5 13,2 16,9 14 7 22 12 NNO 1020,2 20 0,0
21.04.2018 08:00:00 14,0 12,2 11,1 13 7 22 12 N 1020,2 23 0,0
21.04.2018 07:00:00 11,7 11,2 11,1 18 10 23 12 NNO 1019,9 21 0,0
21.04.2018 06:00:00 12,0 10,7 11,0 13 7 21 11 NNO 1019,9 22 0,0
21.04.2018 05:00:00 11,8 10,5 11,0 11 6 19 11 NNO 1020,2 16 0,0
21.04.2018 04:00:00 12,2 10,8 10,7 6 3 13 7 NNO 1020,4 20 0,0
21.04.2018 03:00:00 12,7 11,1 11,1 9 5 12 7 NNO 1020,8 20 0,0
21.04.2018 02:00:00 13,2 11,3 11,6 5 3 11 6 ONO 1021,1 19 0,0
21.04.2018 01:00:00 13,4 12,0 12,2 9 5 11 6 NNO 1021,6 15 0,0
21.04.2018 00:00:00 15,4 12,2 12,1 3 1 6 3 OZO 1021,7 15 0,0
20.04.2018 23:00:00 16,3 11,2 13,5 4 2 7 4 NO 1021,8 17 0,0
20.04.2018 22:00:00 17,7 10,3 13,8 2 1 4 2 NO 1021,8 26 0,0
20.04.2018 21:00:00 19,6 9,5 14,6 0 0 8 4 N 1021,5 43 0,0
20.04.2018 20:00:00 21,7 9,2 20,4 6 3 14 8 Z 1021,3 44 0,0
20.04.2018 19:00:00 23,3 8,6 25,3 10 5 26 14 Z 1021,6 37 0,0
20.04.2018 18:00:00 23,6 8,8 27,8 16 8 29 15 Z 1021,7 35 0,0
20.04.2018 17:00:00 23,6 8,1 28,3 21 11 32 17 Z 1021,8 48 0,0
20.04.2018 16:00:00 24,1 7,7 29,5 23 13 35 19 Z 1022,2 45 0,0
20.04.2018 15:00:00 24,6 7,3 29,9 23 12 34 18 Z 1022,8 48 0,0
20.04.2018 14:00:00 24,8 8,3 30,2 20 11 29 15 Z 1023,1 23 0,0
20.04.2018 13:00:00 25,2 11,4 30,2 9 5 21 12 Z 1023,5 19 0,0
20.04.2018 12:00:00 24,9 10,4 28,2 6 3 16 8 ZO 1023,8 17 0,0
20.04.2018 11:00:00 22,6 10,7 24,8 8 4 17 9 O 1023,9 34 0,0

tt = temperatuur
td = dauwpunt
tt 5cm = temperatuur 5cm
ff = windsnelheid
fx = windstoten
dd = windrichting
ppp = luchtdruk
vv = zicht
rr = neerslag

Weerstations in de omgeving